Вернуться в каталог

THORAD AGENA D DEB

АктивенSSO
NORAD 4980·DEBRIS·🇺🇸 United States

Запущен Apr 8, 1970 с Vandenberg Space Force Base

Loading…

Ближайшие Пролёты

TLE

Source: Space-Track
1 04980U 70025HA  26228.47670500  .00000173  00000-0  27742-3 0  9990
2 04980  99.2843  57.1190 0008552 358.0953  31.3324 13.62181260788430

Отслеживайте THORAD AGENA D DEB в реальном времени с AllMySat

Download on the App Store